Location: Sperry Observatory
(40.6664°N, 74.3236°W)
Time: 03:41:23
(UTC-04:00)

Amateur Radio Satellites - All Passes

Search period start: 23 April 2014 03:11
Search period end: 24 April 2014 03:11
Location: Sperry Observatory, 40.6664°N, 74.3236°W

Satellite Date Start Highest point End Downlink Frequencies (MHz)
Time Altitude Azimuth
KITSAT 1 23 Apr 03:11:44 03:19:46 65° 304° (NW) 03:27:52 435.175 FM
Uribyol 2 23 Apr 03:19:56 03:25:08 80° 286° (WNW) 03:30:19 436.500 FM
TMSAT-1 23 Apr 03:22:52 03:27:06 24° 94° (E) 03:31:17 436.925 FM
AO-Echo 23 Apr 03:40:10 03:44:52 62° 286° (WNW) 03:49:29 ?
AO-7 23 Apr 03:48:03 03:51:47 13° 88° (E) 03:55:30 29.400 - 29.500 MHz
JAS-1B 23 Apr 04:00:26 04:05:10 26° 96° (E) 04:10:09 435.800 - 435.900 CW/SSB
AO-27 23 Apr 04:02:38 04:07:16 34° 292° (WNW) 04:11:53 436.795 MHz FM
Uosat F 23 Apr 04:02:49 04:06:19 19° 93° (E) 04:09:49 435.120 FM
Oscar 19 23 Apr 04:09:29 04:12:47 17° 298° (WNW) 04:16:04 437.125 CW, 437.150 USB
ITAMSAT 1 23 Apr 04:12:30 04:16:53 29° 294° (WNW) 04:21:16 435.822 SSB
OPAL 23 Apr 04:14:38 04:17:25 15° 267° (W) 04:20:13 ?
Gurwin Techsat 1B 23 Apr 04:16:13 04:21:33 79° 285° (WNW) 04:26:50 435.225 FM
Oscar 16 23 Apr 04:19:10 04:21:36 14° 300° (WNW) 04:24:03 437.025 USB, Beacon 2401.1428
TMSAT-1 23 Apr 05:02:12 05:07:10 42° 290° (WNW) 05:12:06 436.925 FM
Uribyol 2 23 Apr 05:02:51 05:03:45 10° 303° (WNW) 05:04:38 436.500 FM
KITSAT 1 23 Apr 05:11:26 05:16:55 19° 328° (NNW) 05:22:26 435.175 FM
STRAND 1 23 Apr 05:20:36 05:22:59 13° 60° (ENE) 05:25:22 ?
AO-7 23 Apr 05:37:27 05:45:48 76° 106° (ESE) 05:54:08 29.400 - 29.500 MHz
Uosat F 23 Apr 05:40:33 05:45:22 48° 289° (WNW) 05:50:08 435.120 FM
JAS-1B 23 Apr 05:50:47 05:56:00 39° 292° (WNW) 06:01:30 435.800 - 435.900 CW/SSB
RS-15 23 Apr 05:56:28 06:07:14 51° 111° (ESE) 06:17:39 29.354 - 29.394 USB, Beacon 29.352 USB
Gurwin Techsat 1B 23 Apr 05:59:31 06:00:37 11° 303° (WNW) 06:01:43 435.225 FM
JAS-2 23 Apr 06:35:49 06:37:55 12° 91° (E) 06:40:06 435.800 - 435.900 CW/SSB, 435.910 FM
MaSat-1 23 Apr 06:49:33 06:52:35 49° 247° (WSW) 06:56:12 437.345 MHz
STRAND 1 23 Apr 06:56:23 07:01:30 79° 257° (WSW) 07:06:38 ?
Hamsat 23 Apr 07:27:56 07:32:18 70° 284° (WNW) 07:36:38 145.90 MHz
AO-7 23 Apr 07:31:22 07:37:48 26° 305° (NW) 07:44:14 29.400 - 29.500 MHz
Sapphire 23 Apr 07:40:53 07:44:16 17° 42° (NE) 07:47:38 437.095 MHz 1200 baud AX-25 AFSK
SO-67 23 Apr 07:47:31 07:50:42 32° 97° (E) 07:53:52 435.3500 MHz FM
RS-15 23 Apr 08:08:51 08:19:38 50° 314° (NW) 08:30:12 29.354 - 29.394 USB, Beacon 29.352 USB
JAS-2 23 Apr 08:17:58 08:23:30 86° 285° (WNW) 08:29:41 435.800 - 435.900 CW/SSB, 435.910 FM
PCSat 23 Apr 08:24:29 08:29:25 34° 52° (NE) 08:34:19 145.825 MHz
PANSAT 23 Apr 08:41:07 08:43:05 14° 180° (S) 08:45:03 not established
KITSAT 1 23 Apr 09:10:46 09:16:04 18° 30° (NNE) 09:21:20 435.175 FM
SO-67 23 Apr 09:21:38 09:23:34 14° 293° (WNW) 09:25:30 435.3500 MHz FM
Sapphire 23 Apr 09:23:00 09:28:27 88° 242° (WSW) 09:33:51 437.095 MHz 1200 baud AX-25 AFSK
HO-68 23 Apr 09:30:12 09:36:45 37° 97° (E) 09:43:15 435.675 MHz FM
Saudisat 1A 23 Apr 10:05:46 10:10:06 55° 118° (ESE) 10:14:29 436.775 MHz
JAS-2 23 Apr 10:05:57 10:07:57 12° 300° (WNW) 10:09:59 435.800 - 435.900 CW/SSB, 435.910 FM
PCSat 23 Apr 10:07:56 10:12:48 35° 250° (WSW) 10:17:38 145.825 MHz
RS-15 23 Apr 10:27:44 10:35:33 21° 345° (NNW) 10:43:21 29.354 - 29.394 USB, Beacon 29.352 USB
Oscar 11 23 Apr 10:52:38 10:57:01 89° 103° (ESE) 11:01:23 145.825 FM, Beacon 2401.500 USB
FUNcube-1 23 Apr 10:55:17 10:59:05 29° 97° (E) 11:02:55 145.950 - 145.970 MHz USB
KITSAT 1 23 Apr 11:05:18 11:13:20 61° 55° (NE) 11:21:17 435.175 FM
Sapphire 23 Apr 11:09:41 11:11:00 11° 259° (WSW) 11:12:20 437.095 MHz 1200 baud AX-25 AFSK
HO-68 23 Apr 11:17:48 11:24:29 43° 295° (WNW) 11:31:09 435.675 MHz FM
Saudisat 1A 23 Apr 11:46:46 11:50:02 20° 316° (NW) 11:53:19 436.775 MHz
Oscar 19 23 Apr 12:10:29 12:11:59 11° 58° (ENE) 12:13:28 437.125 CW, 437.150 USB
Oscar 16 23 Apr 12:18:08 12:20:52 15° 60° (ENE) 12:23:36 437.025 USB, Beacon 2401.1428
Oscar 10/S400 23 Apr 12:20:26 13:55:32 35° 256° (WSW) 18:01:22 145.825 - 145.975 CW/USB, Beacon 145.810 USB
FUNcube-1 23 Apr 12:31:55 12:35:22 24° 292° (WNW) 12:38:53 145.950 - 145.970 MHz USB
RS-15 23 Apr 12:45:03 12:53:24 24° 22° (NNE) 13:01:47 29.354 - 29.394 USB, Beacon 29.352 USB
Uribyol 2 23 Apr 13:00:13 13:03:46 19° 63° (ENE) 13:07:19 436.500 FM
KITSAT 1 23 Apr 13:01:26 13:08:13 31° 254° (WSW) 13:14:58 435.175 FM
AO-Echo 23 Apr 13:15:30 13:19:09 20° 64° (ENE) 13:22:44 ?
SO-50 23 Apr 13:39:42 13:42:24 16° 109° (ESE) 13:45:08 436.795 FM
AO-27 23 Apr 13:41:05 13:45:57 43° 70° (ENE) 13:50:50 436.795 MHz FM
Oscar 19 23 Apr 13:45:21 13:50:29 86° 75° (ENE) 13:55:41 437.125 CW, 437.150 USB
ITAMSAT 1 23 Apr 13:50:29 13:55:29 51° 71° (ENE) 14:00:29 435.822 SSB
Oscar 16 23 Apr 13:54:27 13:59:34 73° 257° (WSW) 14:04:46 437.025 USB, Beacon 2401.1428
Gurwin Techsat 1B 23 Apr 13:59:02 14:02:51 21° 63° (ENE) 14:06:41 435.225 FM
ISS 23 Apr 14:11:03 14:14:22 84° 141° (SE) 14:17:43 145.800 FM
Uribyol 2 23 Apr 14:37:46 14:42:49 55° 259° (W) 14:47:53 436.500 FM
TMSAT-1 23 Apr 14:43:14 14:48:01 36° 69° (ENE) 14:52:50 436.925 FM
OPAL 23 Apr 14:44:30 14:47:56 18° 94° (E) 14:51:21 ?
JAS-1B 23 Apr 14:45:20 14:51:30 28° 65° (ENE) 14:56:54 435.800 - 435.900 CW/SSB
AO-7 23 Apr 14:46:23 14:52:20 23° 53° (NE) 14:58:17 29.400 - 29.500 MHz
AO-Echo 23 Apr 14:52:28 14:57:33 52° 260° (W) 15:02:30 ?
RS-15 23 Apr 14:57:44 15:08:35 62° 51° (NE) 15:19:40 29.354 - 29.394 USB, Beacon 29.352 USB
Uosat F 23 Apr 15:15:43 15:19:52 27° 66° (ENE) 15:24:01 435.120 FM
SO-50 23 Apr 15:18:08 15:22:31 54° 306° (NW) 15:26:57 436.795 FM
AO-27 23 Apr 15:21:36 15:25:37 23° 266° (W) 15:29:40 436.795 MHz FM
Oscar 19 23 Apr 15:29:32 15:30:29 11° 272° (W) 15:31:26 437.125 CW, 437.150 USB
ITAMSAT 1 23 Apr 15:31:40 15:35:15 19° 267° (W) 15:38:52 435.822 SSB
Gurwin Techsat 1B 23 Apr 15:37:15 15:42:25 52° 260° (W) 15:47:37 435.225 FM
UOSAT-12 23 Apr 15:38:29 15:40:52 14° 108° (ESE) 15:43:17 437.025 FM, 437.400 FM
ISS 23 Apr 15:48:53 15:51:27 20° 341° (NNW) 15:54:00 145.800 FM
OPAL 23 Apr 16:22:02 16:27:09 57° 290° (WNW) 16:32:15 ?
TMSAT-1 23 Apr 16:23:29 16:27:59 28° 265° (W) 16:32:29 436.925 FM
JAS-1B 23 Apr 16:34:11 16:41:54 54° 259° (WSW) 16:48:23 435.800 - 435.900 CW/SSB
AO-7 23 Apr 16:35:50 16:44:08 86° 252° (WSW) 16:52:28 29.400 - 29.500 MHz
Uosat F 23 Apr 16:53:54 16:58:29 36° 262° (W) 17:03:06 435.120 FM
RS-15 23 Apr 17:10:41 17:20:22 38° 253° (WSW) 17:30:21 29.354 - 29.394 USB, Beacon 29.352 USB
UOSAT-12 23 Apr 17:15:56 17:20:27 63° 305° (NW) 17:25:05 437.025 FM, 437.400 FM
ISS 23 Apr 17:27:35 17:29:09 13° 1° (N) 17:30:44 145.800 FM
Hamsat 23 Apr 18:20:54 18:25:06 79° 76° (ENE) 18:29:23 145.90 MHz
SO-67 23 Apr 18:22:52 18:24:11 12° 66° (ENE) 18:25:31 435.3500 MHz FM
JAS-2 23 Apr 18:30:52 18:35:57 36° 69° (ENE) 18:40:44 435.800 - 435.900 CW/SSB, 435.910 FM
Saudisat 1A 23 Apr 18:33:01 18:37:12 40° 51° (NE) 18:41:19 436.775 MHz
AO-7 23 Apr 18:33:14 18:37:59 16° 270° (W) 18:42:46 29.400 - 29.500 MHz
UOSAT-12 23 Apr 19:00:07 19:01:34 11° 325° (NW) 19:03:01 437.025 FM, 437.400 FM
ISS 23 Apr 19:04:08 19:06:50 22° 21° (NNE) 19:09:31 145.800 FM
STRAND 1 23 Apr 19:07:37 19:12:17 35° 97° (E) 19:16:56 ?
SO-67 23 Apr 19:53:40 19:56:58 40° 262° (W) 20:00:17 435.3500 MHz FM
HO-68 23 Apr 19:59:12 20:05:00 28° 60° (ENE) 20:10:48 435.675 MHz FM
Saudisat 1A 23 Apr 20:13:13 20:16:32 21° 248° (WSW) 20:19:50 436.775 MHz
JAS-2 23 Apr 20:16:24 20:21:08 27° 264° (W) 20:25:36 435.800 - 435.900 CW/SSB, 435.910 FM
ISS 23 Apr 20:40:29 20:43:50 68° 219° (SW) 20:47:09 145.800 FM
STRAND 1 23 Apr 20:47:04 20:51:19 27° 294° (WNW) 20:55:34 ?
MaSat-1 23 Apr 20:52:23 20:55:13 89° 296° (WNW) 20:57:46 437.345 MHz
HO-68 23 Apr 21:45:13 21:52:13 59° 258° (WSW) 21:59:17 435.675 MHz FM
Oscar 11 23 Apr 21:47:15 21:51:31 67° 75° (ENE) 21:55:49 145.825 FM, Beacon 2401.500 USB
FUNcube-1 23 Apr 21:52:19 21:55:36 23° 68° (ENE) 21:58:53 145.950 - 145.970 MHz USB
SO-50 23 Apr 22:10:21 22:13:32 18° 42° (NE) 22:16:44 436.795 FM
Sapphire 23 Apr 22:25:16 22:27:03 12° 102° (ESE) 22:28:50 437.095 MHz 1200 baud AX-25 AFSK
PCSat 23 Apr 23:06:17 23:10:59 32° 109° (ESE) 23:15:44 145.825 MHz
Oscar 11 23 Apr 23:27:37 23:28:09 10° 271° (W) 23:28:41 145.825 FM, Beacon 2401.500 USB
FUNcube-1 23 Apr 23:28:18 23:31:54 28° 264° (W) 23:35:31 145.950 - 145.970 MHz USB
SO-50 23 Apr 23:49:55 23:54:33 68° 240° (WSW) 23:59:14 436.795 FM
Sapphire 24 Apr 00:04:14 00:09:39 88° 298° (WNW) 00:15:06 437.095 MHz 1200 baud AX-25 AFSK
UOSAT-12 24 Apr 00:06:52 00:09:48 16° 40° (NE) 00:12:43 437.025 FM, 437.400 FM
PCSat 24 Apr 00:49:19 00:54:18 37° 307° (NW) 00:59:20 145.825 MHz
KITSAT 1 24 Apr 01:33:16 01:40:45 43° 110° (ESE) 01:48:15 435.175 FM
UOSAT-12 24 Apr 01:45:49 01:50:34 82° 239° (WSW) 01:55:15 437.025 FM, 437.400 FM
Sapphire 24 Apr 01:50:37 01:53:52 16° 318° (NW) 01:57:08 437.095 MHz 1200 baud AX-25 AFSK
AO-27 24 Apr 01:55:44 01:58:44 15° 91° (E) 02:01:44 436.795 MHz FM
Oscar 19 24 Apr 01:57:42 02:02:19 31° 96° (E) 02:06:53 437.125 CW, 437.150 USB
OPAL 24 Apr 01:58:45 02:03:07 30° 65° (ENE) 02:07:34 ?
ITAMSAT 1 24 Apr 02:04:40 02:08:15 19° 93° (E) 02:11:49 435.822 SSB
Oscar 16 24 Apr 02:06:39 02:11:34 41° 98° (E) 02:16:26 437.025 USB, Beacon 2401.1428
Uribyol 2 24 Apr 02:50:42 02:55:48 55° 101° (E) 03:00:52 436.500 FM
AO-Echo 24 Apr 03:00:12 03:04:49 50° 100° (E) 03:09:22 ?
TMSAT-1 24 Apr 03:00:44 03:03:31 14° 90° (E) 03:06:18 436.925 FM
